This demonstration page uses our WeatherBlox Daily Observations layout. Learn more.

Left ArrowRight Arrow

41.55636, -103.73856

Hourly Observations for February 2, 2020

Temp ( °F °C ) Dew Point ( °F °C ) Humidity (%) Winds ( mph kmh ) Pressure ( in mb ) Visibility ( mi km ) Precip ( " mm )
12:58 am 00:58 Mostly Cloudy 49 9.5 17 -8.5 27 27 W 17 28 30.01 1016 10 16 N/A
2:58 am 02:58 Mostly Cloudy 50 10 14 -10 24 24 W 14 22 30.02 1017 10 16 N/A
3:58 am 03:58 Mostly Cloudy 50 9.9 11 -11.5 21 21 W 8 13 29.99 1016 10 16 N/A
4:58 am 04:58 Partly Cloudy 48 9 11 -11.4 23 23 W 8 13 29.97 1015 10 16 N/A
5:58 am 05:58 Clear 47 8.3 11 -11.8 23 23 W 16 26 29.97 1015 10 16 N/A
6:58 am 06:58 Clear 47 8.2 10 -12.1 23 23 W 9 15 29.95 1014 10 16 N/A
7:58 am 07:58 Mostly Clear 50 10.2 7 -13.8 17 17 W 14 22 29.92 1013 10 16 N/A
8:58 am 08:58 Clear 51 10.5 6 -14.7 16 16 WNW 15 24 29.90 1013 10 16 N/A
9:58 am 09:58 Clear 46 7.5 8 -13.3 21 21 NW 14 22 29.90 1012 10 16 N/A
10:58 am 10:58 Clear 41 4.9 11 -11.6 29 29 NW 14 22 29.90 1012 10 16 N/A
11:58 am 11:58 Clear 49 9.6 6 -14.3 17 17 W 16 26 29.86 1011 10 16 N/A
12:58 pm 12:58 Clear 50 10.2 6 -14.6 16 16 NW 7 11 29.86 1011 10 16 N/A
1:58 pm 13:58 Clear 51 10.5 5 -15.1 15 15 NW 12 19 29.85 1011 10 16 N/A
2:58 pm 14:58 Sunny 54 12.1 4 -15.3 13 13 WSW 23 37 29.83 1010 10 16 N/A
3:58 pm 15:58 Sunny 61 15.9 4 -15.3 10 10 WSW 25 41 29.79 1009 10 16 N/A
4:58 pm 16:58 Sunny 64 17.6 4 -15.4 9 9 WSW 24 39 29.76 1008 10 16 N/A
5:58 pm 17:58 Sunny 67 19.5 6 -14.5 9 9 SW 21 33 29.73 1007 10 16 N/A
6:58 pm 18:58 Sunny 69 20.5 6 -14.4 8 8 SW 23 37 29.69 1005 10 16 N/A
7:58 pm 19:58 Sunny 70 21 8 -13.5 9 9 WSW 22 35 29.61 1003 10 16 N/A
8:58 pm 20:58 Sunny 69 20.7 9 -12.9 9 9 SW 16 26 29.57 1001 10 16 N/A
9:58 pm 21:58 Sunny 71 21.5 10 -12.3 9 9 WSW 9 15 29.53 1000 10 16 N/A
10:58 pm 22:58 Mostly Cloudy 66 18.8 11 -11.8 11 11 N 6 9 29.54 1000 10 16 N/A
11:58 pm 23:58 Mostly Cloudy 46 7.6 20 -6.9 35 35 NE 15 24 29.61 1003 10 16 N/A

Powered by AerisWeather